Tracking 34794 objects as of 19-Jul-2026
HD Live streaming from Space Station
objects crossing your sky now

CZ-4 DEB

Track CZ-4 DEB now!
10-day predictions


NORAD ID: 37612
Int'l Code: 1990-081CY
Perigee: 693.8 km
Apogee: 737.4 km
Inclination: 98.3 °
Period: 98.9 minutes
Semi major axis: 7086 km
RCS: 0.0126 m2 (small)
Launch date: September 3, 1990
Source: People's Republic of China (PRC)
Launch site: Taiyaun Space Center, China (TSC)

Note: This is SATELLITE DEBRIS
Your satellite tracking list
Your tracking list is empty




NASA's NSSDC Master Catalog

Two Line Element Set (TLE):
1 37612U 90081CY  26184.94621619  .00003884  00000-0  90099-3 0  9999
2 37612  98.2658 225.5192 0030797 105.0278  16.2845 14.55286202686353
Source of the keplerian elements: AFSPC